Regional Weather Roundup
Issued by NWS

Home | Current Version | Previous Version | Text Only | Print | Product List | Glossary On
Versions: 1 2 3 4 5 6 7 8 9 10 11 12 13 14 15 16 17 18 19 20 21 22 23 24 25 26 27 28 29 30 31 32 33 34 35 36 37 38 39 40 41 42 43 44 45 46 47 48 49 50
000
ASUS43 KLSX 240607
RWRMO

WEATHER SUMMARY FOR MISSOURI
NATIONAL WEATHER SERVICE SPRINGFIELD MO
100 AM CDT THU APR 24 2014

NOTE: "FAIR" INDICATES FEW OR NO CLOUDS BELOW 12,000 FEET WITH NO
       SIGNIFICANT WEATHER AND/OR OBSTRUCTIONS TO VISIBILITY.
       CURRENT SKY AND/OR WEATHER CONDITIONS ARE NOT AVAILABLE FOR
       CHILLICOTHE AND FARMINGTON.

MOZ001>031-035>038-043-044-053-054-240700-
...NORTHERN AND WESTERN MISSOURI...

CITY           SKY/WX    TMP DP  RH WIND       PRES   REMARKS
KANSAS CTY INT MOCLDY    68  41  37 SE21G28   29.68F
6HR MIN TEMP:  68; 6HR MAX TEMP:  71;

KANSAS C DTWN  FAIR      70  42  36 SE13G22   29.69S
6HR MIN TEMP:  69; 6HR MAX TEMP:  74;

LEE`S SUMMIT   FAIR      67  42  40 S14G22    29.72R
6HR MIN TEMP:  66; 6HR MAX TEMP:  72;

ST JOSEPH      FAIR      64  41  42 SE13      29.65F
6HR MIN TEMP:  62; 6HR MAX TEMP:  71;

CHILLICOTHE      N/A     58  39  49 SE9G17    29.77S
6HR MIN TEMP:  57; 6HR MAX TEMP:  66;

KIRKSVILLE     FAIR      54  35  48 SE16      29.83R
6HR MIN TEMP:  52; 6HR MAX TEMP:  58;


$$
MOZ066>068-077>081-088>096-101>105-240700-
...SOUTHWEST MISSOURI...

CITY           SKY/WX    TMP DP  RH WIND       PRES   REMARKS
SPRINGFIELD    FAIR      63  44  50 S16G25    29.84R
6HR MIN TEMP:  63; 6HR MAX TEMP:  74;

JOPLIN         FAIR      68  48  48 S18G28    29.77F
6HR MIN TEMP:  68; 6HR MAX TEMP:  77;


$$
MOZ032>034-039>042-045>050-055>058-069>072-240700-
...CENTRAL MISSOURI...

CITY           SKY/WX    TMP DP  RH WIND       PRES   REMARKS
COLUMBIA       FAIR      58  38  47 SE17      29.82F
6HR MIN TEMP:  57; 6HR MAX TEMP:  63;

JEFFERSON CITY FAIR      58  38  47 E14       29.83F
6HR MIN TEMP:  53; 6HR MAX TEMP:  67;

ROLLA          FAIR      59  35  40 SE16      29.86F
6HR MIN TEMP:  55; 6HR MAX TEMP:  66;

SEDALIA        FAIR      66  40  38 S22G31    29.79R
6HR MIN TEMP:  61; 6HR MAX TEMP:  70;

WHITEMAN AFB   CLOUDY    65  35  32 S18G25    29.76S
OSAGE BEACH    FAIR      63  34  34 S10G17    29.85F

$$
MOZ051-052-059>065-240700-
...EAST CENTRAL MISSOURI...

CITY           SKY/WX    TMP DP  RH WIND       PRES   REMARKS
ST LOUIS INTL  CLOUDY    58  32  37 SE16G24   29.93F
6HR MIN TEMP:  57; 6HR MAX TEMP:  63;

SPIRIT OF STL  FAIR      56  32  40 SE7       29.92F
6HR MIN TEMP:  56; 6HR MAX TEMP:  62;

ST CHARLES     FAIR      54  35  48 SE12      29.92F
6HR MIN TEMP:  52; 6HR MAX TEMP:  61;


$$
MOZ072>076-082>087-097>100-106>115-240700-
...SOUTH CENTRAL AND SOUTHEAST MISSOURI...

CITY           SKY/WX    TMP DP  RH WIND       PRES   REMARKS
CAPE GIRARDEAU FAIR      51  38  60 E5        29.97S
6HR MIN TEMP:  51; 6HR MAX TEMP:  66;

FARMINGTON     FAIR      54  34  47 SE8       29.96F
6HR MIN TEMP:  50; 6HR MAX TEMP:  64;

POPLAR BLUFF   FAIR      52  43  71 E3        29.94S
6HR MIN TEMP:  52; 6HR MAX TEMP:  68;

WEST PLAINS    FAIR      58  36  43 SE6       29.92S
6HR MIN TEMP:  57; 6HR MAX TEMP:  71;


$$



USA.gov is the U.S. government's official web portal to all federal, state and local government web resources and services.